Home   Weather   Apolda   Past weeks

Flag for Germany Past Weather in Apolda, Thuringia, Germany — Yesterday and Last 2 Weeks

Now
30 °F

Light fog.


Feels Like: 25 °F
Forecast: 19 / 30 °F
Wind: 5 mph from North

Location: Erfurt-Bindersleben

Current Time: Dec 5, 2016 at 1:39:22 pm

Latest Report: Dec 5, 2016 at 1:20 pm


Visibility: N/A

Pressure: 30.30 "Hg

Humidity: 93%

Dew Point: 28 °F

Location of ApoldaLocation

Past Weather in Apolda — Graph

°F

Apolda Temperature Yesterday

Maximum temperature yesterday: 25 °F (at 12:20 am)
Minimum temperature yesterday: 18 °F (at 9:20 am)
Average temperature yesterday: 21 °F

High & Low Weather Summary for the Past Weeks

 TemperatureHumidityPressure
High55 °F (Nov 20, 5:50 pm)100% (Nov 23, 12:50 am)30.54 "Hg (Nov 23, 12:50 am)
Low14 °F (Dec 5, 3:50 am)50% (Nov 20, 12:20 pm)29.53 "Hg (Nov 20, 2:50 pm)
Average36 °F87%30.14 "Hg
* Reported Nov 20 12:20 pm — Dec 5 12:20 pm, Apolda, Weather by CustomWeather, © 2016

Note: Actual official high and low records may vary slightly from our data, if they occured in-between our weather recording intervals... More about our weather records

Advertising

Apolda Weather History for the Previous 24 Hours

Scroll right to see more
 ConditionsComfort  
Time TempWeatherWind HumidityBarometerVisibility
12:20 pm
Mon, Dec 5
28 °FPassing clouds.3 mph86%30.30 "HgN/A
11:50 am27 °FSunny.6 mph93%30.30 "Hg10 mi
11:20 am27 °FSunny.5 mph93%30.30 "Hg10 mi
10:50 am25 °FSunny.6 mph93%30.33 "Hg10 mi
10:20 am23 °FLight fog.6 mph93%30.33 "HgN/A
9:50 am21 °FLight fog.6 mph93%30.33 "HgN/A
9:20 am19 °FLight fog.6 mph93%30.33 "HgN/A
8:50 am16 °FLight fog.3 mph93%30.33 "HgN/A
8:20 am14 °FLight fog.7 mph92%30.33 "HgN/A
7:50 am14 °FLight fog.6 mph92%30.33 "HgN/A
7:20 am14 °FLight fog.5 mph92%30.33 "HgN/A
6:50 am14 °FLight fog.6 mph92%30.33 "HgN/A
6:20 am14 °FLight fog.2 mph92%30.33 "HgN/A
5:50 am14 °FCold.3 mph92%30.33 "Hg4 mi
5:20 am14 °FIce fog.5 mph92%30.33 "Hg1 mi
4:50 am14 °FIce fog.3 mph100%30.33 "Hg2 mi
4:20 am14 °FIce fog.3 mph100%30.33 "Hg1 mi
3:50 am14 °FIce fog.5 mph92%30.33 "Hg1 mi
3:20 am16 °FIce fog.2 mph100%30.36 "Hg0 mi
2:50 am16 °FIce fog.1 mph100%30.36 "Hg0 mi
2:20 am16 °FIce fog.2 mph100%30.36 "Hg0 mi
1:50 am18 °FIce fog.1 mph100%30.36 "Hg0 mi
1:20 am19 °FIce fog.1 mph100%30.36 "Hg0 mi
12:50 am19 °FIce fog.1 mph100%30.36 "Hg0 mi
12:20 am19 °FIce fog.1 mph100%30.36 "Hg0 mi
11:50 pm
Sun, Dec 4
19 °FIce fog.2 mph100%30.36 "Hg0 mi
11:20 pm19 °FIce fog.2 mph100%30.36 "Hg0 mi
10:50 pm19 °FIce fog.2 mph100%30.36 "Hg0 mi
10:20 pm18 °FIce fog.2 mph100%30.36 "Hg0 mi
9:50 pm18 °FIce fog.1 mph100%30.39 "Hg0 mi
9:20 pm18 °FIce fog.1 mph100%30.39 "Hg0 mi
8:50 pm19 °FIce fog.1 mph100%30.39 "Hg0 mi
8:20 pm19 °FIce fog.1 mph100%30.39 "Hg0 mi
7:50 pm21 °FIce fog.1 mph100%30.39 "Hg0 mi
7:20 pm21 °FIce fog.1 mph100%30.39 "Hg0 mi
6:50 pm21 °FIce fog.2 mph100%30.39 "Hg0 mi
6:20 pm21 °FIce fog.5 mph100%30.36 "Hg0 mi
5:50 pm21 °FIce fog.2 mph100%30.36 "Hg0 mi
5:20 pm21 °FIce fog.2 mph100%30.36 "Hg0 mi
4:50 pm21 °FIce fog.5 mph100%30.36 "Hg0 mi
4:20 pm21 °FIce fog.3 mph100%30.36 "Hg0 mi
3:50 pm23 °FIce fog.3 mph93%30.36 "Hg0 mi
3:20 pm23 °FIce fog.3 mph93%30.36 "Hg0 mi
2:50 pm23 °FIce fog.2 mph100%30.36 "Hg0 mi
2:20 pm23 °FIce fog.2 mph93%30.36 "Hg0 mi
1:50 pm23 °FIce fog.3 mph93%30.36 "Hg0 mi
1:20 pm21 °FIce fog.5 mph100%30.36 "Hg0 mi
Weather by CustomWeather, © 2016

See weather overviewHow to use our weather pages